Location: Albuquerque Trailhead
(34.7934°N, 106.3736°W)
Time: 10:50:12
(UTC+00:00)

Oscar 11 - Visible Passes

Search period start: 27 March 2023 00:00
Search period end: 06 April 2023 00:00
Orbit: 608 x 622 km, 97.7° (Epoch: 26 March)

Date Brightness Start Highest point End Pass type
(mag) Time Alt. Az. Time Alt. Az. Time Alt. Az.
27 Mar 7.5 11:16:04 10° NNE 11:20:18 59° E 11:24:20 11° S visible
28 Mar 6.9 11:31:43 10° N 11:35:59 87° WNW 11:40:16 10° SSW visible
29 Mar 7.1 11:47:28 10° N 11:51:40 55° WNW 11:55:49 10° SSW visible
30 Mar 9.8 10:28:35 10° NE 10:31:10 16° E 10:33:44 10° SE visible
30 Mar 7.7 12:03:22 10° N 12:07:17 35° WNW 12:11:10 10° SW visible
31 Mar 9.2 10:43:29 10° NE 10:46:57 24° E 10:50:23 10° SSE visible
31 Mar 8.2 12:19:26 10° NNW 12:22:51 24° WNW 12:26:15 10° WSW visible
01 Apr 8.5 10:58:43 10° NNE 11:02:41 36° E 11:06:38 10° SSE visible
02 Apr 7.6 11:14:10 10° NNE 11:18:23 57° E 11:22:35 10° S visible
03 Apr 7.0 11:29:45 10° NNE 11:34:03 90° SW 11:38:20 10° SSW visible
04 Apr 7.1 11:45:28 10° N 11:49:40 57° WNW 11:53:52 10° SSW visible
05 Apr 9.8 10:26:39 10° ENE 10:29:09 15° E 10:31:38 10° SE visible
05 Apr 7.6 12:01:19 10° N 12:05:15 37° WNW 12:09:12 10° SW visible
